Preview of NWS' New Version of Forecast
This preview is not operational and should not be used for support decisions.

Regional Weather Roundup (RWR)

Issued by National Weather Service (NWS)

                            
000
ASUS43 KDMX 250601
RWRIA 

WEATHER ROUNDUP FOR IOWA
NATIONAL WEATHER SERVICE DES MOINES IA
100 AM CDT TUE JUN 25 2019

NOTE: "FAIR" INDICATES FEW OR NO CLOUDS BELOW 12,000 FEET WITH NO
SIGNIFICANT WEATHER AND/OR OBSTRUCTIONS TO VISIBILITY.

* - THESE STATIONS ARE NOT NWS STATIONS...THUS NOT UNDER NWS
QUALITY CONTROL.  THEY ALSO DO NOT REPORT WEATHER SUCH 
AS PRECIPITATION OR FOG.  

IAZ001>003-012>014-020>022-031>034-043>046-250700-
   NORTHWEST IOWA
  
CITY           SKY/WX    TMP DP  RH WIND       PRES   REMARKS
CARROLL *      CLEAR     64  57  77 SW10      29.77S                  
CHEROKEE *     CLEAR     59  59  99 CALM      29.75S                  
DENISON *      CLEAR     66  59  77 VRB5      29.79S                  
LE MARS *      CLEAR     64  59  82 CALM      29.74R                  
SHELDON *        N/A     64  64 100 SW6       29.73R                  
SIOUX CITY     CLEAR     64  56  75 SE6       29.74S                  
6HR MIN TEMP:  63; 6HR MAX TEMP:  80;                                

SPENCER        CLEAR     64  55  72 S5        29.75F                  
6HR MIN TEMP:  64; 6HR MAX TEMP:  78;                                

STORM LAKE *   CLEAR     63  57  82 SW7       29.74R                  
$$
 
IAZ055>058-069>071-079>083-090>094-250700-
   SOUTHWEST IOWA
  
CITY           SKY/WX    TMP DP  RH WIND       PRES   REMARKS
ATLANTIC *     CLEAR     63  63 100 S5        29.80S                  
AUDUBON *      CLEAR     64  57  77 CALM      29.81R                  
CLARINDA *     CLEAR     63  63 100 S5        29.84S                  
COUNCIL BLFS * CLEAR     66  61  82 S5        29.78S                  
CRESTON *      CLEAR     64  59  82 SW9       29.83S                  
HARLAN  *      CLEAR     63  59  88 CALM      29.79S                  
LAMONI         CLEAR     66  58  75 SW10      29.84S                  
6HR MIN TEMP:  65; 6HR MAX TEMP:  77;                                

RED OAK *      CLEAR     64  61  88 S3        29.82S                  
SHENANDOAH *   CLEAR     66  61  82 S5        29.81S                  
$$
 
IAZ047>049-059>061-072>074-084-250700-
   CENTRAL IOWA
  
CITY           SKY/WX    TMP DP  RH WIND       PRES   REMARKS
AMES           CLEAR     62  58  86 SW8       29.78R                  
6HR MIN TEMP:  62; 6HR MAX TEMP:  69; 6HR PCP: TRACE;                

ANKENY *       CLEAR     68  57  68 SW6       29.80S                  
BOONE *        CLEAR     64  63  94 SW6       29.78S                  
CHARITON *     CLEAR     66  61  82 SW7       29.82S                  
DES MOINES     CLEAR     66  57  72 SW8       29.79S                  
6HR MIN TEMP:  66; 6HR MAX TEMP:  78;                                

GRINNELL*      PTCLDY    64  58  83 SW8       29.81R                  
KNOXVILLE *    CLEAR     64  59  82 SW7       29.81R                  
MARSHALLTOWN   CLEAR     62  58  86 SW6       29.77S                  
6HR MIN TEMP:  60; 6HR MAX TEMP:  74;                                

NEWTON *       CLEAR     63  61  94 SW7       29.80R                  
PELLA *        CLEAR     65  58  78 SW5       29.82R                  
$$
 
IAZ004>006-015-016-023>025-035-036-250700-
   NORTH CENTRAL IOWA
  
CITY           SKY/WX    TMP DP  RH WIND       PRES   REMARKS
ALGONA *       CLOUDY    64  61  88 CALM      29.75F                  
CLARION *      CLEAR     61  59  94 S8        29.76S                  
ESTHERVILLE    CLEAR     63  54  72 S6        29.73F                  
6HR MIN TEMP:  61; 6HR MAX TEMP:  75; 6HR PCP:  0.13;                

FORT DODGE *   CLEAR     62  57  83 S3        29.76F                  
MASON CITY     MOCLDY    64  58  80 W12       29.79R                  
6HR MIN TEMP:  60; 6HR MAX TEMP:  74; 6HR PCP:  0.04;                

FOREST CITY *  RAIN      64  59  82 W5G17     29.77R                  
IOWA FALLS *   FAIR      65  59  82 SW7       29.77S                  
$$

IAZ007>011-017>019-026>030-037>042-050>054-066-250700-
   NORTHEAST IOWA
  
CITY           SKY/WX    TMP DP  RH WIND       PRES   REMARKS
CEDAR RAPIDS   FAIR      62  58  86 SW7       29.77S                  
6HR MIN TEMP:  61; 6HR MAX TEMP:  74;                                

CHARLES CITY * FAIR      61  57  88 S5        29.76R                  
CLINTON *      FAIR      63  59  87 SW9       29.79R                  
DECORAH *      FAIR      61  59  94 CALM      29.73S                  
DUBUQUE        FAIR      59  57  93 SW7       29.76S                  
6HR MIN TEMP:  58; 6HR MAX TEMP:  68; 6HR PCP:  0.16;                

OELWEIN *      FAIR      61  61 100 SW8       29.76S                  
WATERLOO       FAIR      63  57  81 SW5       29.75F                  
6HR MIN TEMP:  62; 6HR MAX TEMP:  76;                                

$$
 
IAZ064-065-067-068-078-250700-
   EAST CENTRAL IOWA
  
CITY           SKY/WX    TMP DP  RH WIND       PRES   REMARKS
DAVENPORT      FAIR      66  58  75 SW6       29.81R                  
6HR MIN TEMP:  66; 6HR MAX TEMP:  73;                                

IOWA CITY      FAIR      65  59  81 SW3       29.79S                  
6HR MIN TEMP:  63; 6HR MAX TEMP:  75;                                

MT. PLEASANT * CLEAR     63  61  94 CALM      29.82S                  
MUSCATINE *    FAIR      66  59  77 SW8G14    29.80R                  
QUAD CITIES    FAIR      67  59  75 W6        29.79R                  
6HR MIN TEMP:  67; 6HR MAX TEMP:  75;                                

$$
 
IAZ062-063-075>077-085>089-095>099-250700-
   SOUTHEAST IOWA
  
CITY           SKY/WX    TMP DP  RH WIND       PRES   REMARKS
BURLINGTON     CLEAR     67  58  72 SW8       29.82R                  
6HR MIN TEMP:  66; 6HR MAX TEMP:  75;                                

FAIRFIELD *    CLEAR     66  59  77 SW9       29.82S                  
FORT MADISON * CLEAR     68  61  77 SW8       29.84S                  
KEOKUK *       CLEAR     66  59  77 SW8       29.84R                  
OSKALOOSA *    FAIR      64  58  80 SW9       29.82R                  
OTTUMWA        CLEAR     67  58  72 SW9       29.81S                  
6HR MIN TEMP:  66; 6HR MAX TEMP:  76;                                

WASHINGTON *   CLEAR     64  64 100 SW8       29.79S                  
$$

ABBREVIATIONS USED IN REMARKS
   TC - TEMPERATURES IN CELSIUS
  WCI - WIND CHILL INDEX
   HX - HEAT INDEX
  VSB - VISIBILITY  
$$